Location: Ciula Mare
(45.6000°N, 22.8167°E)
Time: 20:25:30
(UTC+00:00)

COSMOS 2428 - Pass Details

Date: 03 February 2023
Orbit: 843 x 858 km, 70.9° (Epoch: 23 March)

Event Time Altitude Azimuth Distance (km) Brightness Sun altitude
Rises 16:45:10 0° 150° (SSE) 3,390 5.7 -12.1°
Reaches altitude 10° 16:48:53 10° 126° (SE) 2,460 4.7 -12.8°
Enters shadow 16:50:20 13° 111° (ESE) 2,262 4.4 -13.0°
